When you browse on this site, cookies collect data to enhance your experience and personalize the content and advertising you see.
Visit our Privacy Policy to learn more. By continuing to use the site, you agree to this use of cookies and data.
  • en Suisse
  • Liste des pays
  • À 7 jours
  • Température de l'eau
  • Carte météo
  • Widgets météo
  • user-avatar
    Se connecter

    Météo par heure à Rawson

    Ce jour, 20 Novembre, Mercredi

    Heure Température Précipitation Vent Pression Humidité
    00:00 +17°C° 0 mm 14 m/s 753 mmHg 25%
    01:00 +15°C° 0 mm 12 m/s 754 mmHg 24%
    02:00 +13°C° 0 mm 10 m/s 755 mmHg 22%
    03:00 +13°C° 0 mm 9 m/s 756 mmHg 25%
    04:00 +12°C° 0 mm 8 m/s 757 mmHg 29%
    05:00 +11°C° 0 mm 7 m/s 757 mmHg 32%
    06:00 +12°C° 0 mm 7 m/s 758 mmHg 30%
    07:00 +13°C° 0 mm 8 m/s 759 mmHg 28%
    08:00 +16°C° 0 mm 8 m/s 759 mmHg 25%
    09:00 +17°C° 0 mm 7 m/s 760 mmHg 23%
    10:00 +19°C° 0 mm 6 m/s 760 mmHg 20%
    11:00 +21°C° 0 mm 5 m/s 760 mmHg 17%
    12:00 +22°C° 0 mm 5 m/s 759 mmHg 17%
    13:00 +23°C° 0 mm 5 m/s 759 mmHg 16%
    14:00 +23°C° 0 mm 5 m/s 758 mmHg 15%
    15:00 +25°C° 0 mm 5 m/s 758 mmHg 15%
    16:00 +25°C° 0 mm 5 m/s 757 mmHg 15%
    17:00 +25°C° 0 mm 4 m/s 757 mmHg 14%
    18:00 +22°C° 0 mm 6 m/s 757 mmHg 19%
    19:00 +20°C° 0 mm 7 m/s 757 mmHg 24%
    20:00 +17°C° 0 mm 8 m/s 757 mmHg 29%
    21:00 +16°C° 0 mm 7 m/s 758 mmHg 31%
    22:00 +16°C° 0 mm 6 m/s 758 mmHg 33%
    23:00 +15°C° 0 mm 5 m/s 758 mmHg 35%

    Demain, 21 Novembre, Jeudi

    Heure Température Précipitation Vent Pression Humidité
    00:00 +15°C° 0 mm 5 m/s 758 mmHg 35%
    01:00 +15°C° 0 mm 4 m/s 759 mmHg 36%
    02:00 +15°C° 0 mm 4 m/s 759 mmHg 36%
    03:00 +14°C° 0 mm 4 m/s 759 mmHg 36%
    04:00 +14°C° 0 mm 4 m/s 759 mmHg 36%
    05:00 +13°C° 0 mm 5 m/s 760 mmHg 36%
    06:00 +14°C° 0 mm 6 m/s 760 mmHg 32%
    07:00 +16°C° 0 mm 7 m/s 760 mmHg 29%
    08:00 +17°C° 0 mm 8 m/s 761 mmHg 26%
    09:00 +18°C° 0 mm 8 m/s 761 mmHg 24%
    10:00 +20°C° 0 mm 7 m/s 761 mmHg 22%
    11:00 +21°C° 0 mm 7 m/s 761 mmHg 19%
    12:00 +21°C° 0 mm 7 m/s 761 mmHg 22%
    13:00 +21°C° 0 mm 6 m/s 761 mmHg 24%
    14:00 +20°C° 0 mm 6 m/s 760 mmHg 27%
    15:00 +19°C° 0 mm 6 m/s 760 mmHg 30%
    16:00 +17°C° 0 mm 6 m/s 760 mmHg 33%
    17:00 +16°C° 0 mm 6 m/s 760 mmHg 36%
    18:00 +15°C° 0 mm 6 m/s 761 mmHg 40%
    19:00 +14°C° 0 mm 5 m/s 761 mmHg 43%
    20:00 +13°C° 0 mm 5 m/s 761 mmHg 47%
    21:00 +13°C° 0 mm 5 m/s 761 mmHg 48%
    22:00 +13°C° 0 mm 5 m/s 762 mmHg 48%
    23:00 +13°C° 0 mm 4 m/s 762 mmHg 48%

    Après-demain, 22 Novembre, Vendredi

    Heure Température Précipitation Vent Pression Humidité
    00:00 +12°C° 0 mm 4 m/s 762 mmHg 50%
    01:00 +12°C° 0 mm 5 m/s 762 mmHg 51%
    02:00 +12°C° 0 mm 5 m/s 762 mmHg 53%
    03:00 +12°C° 0 mm 5 m/s 762 mmHg 54%
    04:00 +11°C° 0 mm 6 m/s 762 mmHg 55%
    05:00 +11°C° 0 mm 6 m/s 762 mmHg 56%
    06:00 +15°C° 0 mm 7 m/s 762 mmHg 45%
    07:00 +17°C° 0 mm 8 m/s 762 mmHg 34%
    08:00 +21°C° 0 mm 9 m/s 762 mmHg 23%
    09:00 +23°C° 0 mm 8 m/s 762 mmHg 20%
    10:00 +26°C° 0 mm 8 m/s 762 mmHg 16%
    11:00 +28°C° 0 mm 8 m/s 762 mmHg 13%
    12:00 +29°C° 0 mm 9 m/s 761 mmHg 12%
    13:00 +29°C° 0 mm 9 m/s 761 mmHg 12%
    14:00 +31°C° 0 mm 10 m/s 760 mmHg 12%
    15:00 +29°C° 0 mm 11 m/s 760 mmHg 13%
    16:00 +28°C° 0 mm 12 m/s 759 mmHg 15%
    17:00 +26°C° 0 mm 13 m/s 759 mmHg 17%
    18:00 +23°C° 0 mm 13 m/s 759 mmHg 23%
    19:00 +21°C° 0 mm 12 m/s 759 mmHg 28%
    20:00 +18°C° 0 mm 12 m/s 760 mmHg 34%
    21:00 +18°C° 0 mm 12 m/s 760 mmHg 34%
    22:00 +18°C° 0 mm 13 m/s 760 mmHg 35%
    23:00 +18°C° 0 mm 13 m/s 760 mmHg 35%

    23 Novembre, Samedi

    Heure Température Précipitation Vent Pression Humidité
    00:00 +18°C° 0 mm 13 m/s 759 mmHg 35%
    01:00 +17°C° 0 mm 13 m/s 759 mmHg 34%
    02:00 +17°C° 0 mm 12 m/s 759 mmHg 34%
    03:00 +16°C° 0 mm 11 m/s 759 mmHg 36%
    04:00 +16°C° 0 mm 11 m/s 759 mmHg 38%
    05:00 +14°C° 0 mm 10 m/s 758 mmHg 41%
    06:00 +17°C° 0 mm 11 m/s 758 mmHg 40%
    07:00 +18°C° 0 mm 12 m/s 758 mmHg 39%
    08:00 +21°C° 0 mm 12 m/s 758 mmHg 38%
    09:00 +22°C° 0.1 mm 12 m/s 757 mmHg 36%
    10:00 +24°C° 0.1 mm 12 m/s 757 mmHg 34%
    11:00 +26°C° 0.1 mm 12 m/s 757 mmHg 32%
    12:00 +26°C° 0 mm 13 m/s 756 mmHg 30%
    13:00 +27°C° 0 mm 13 m/s 755 mmHg 27%
    14:00 +27°C° 0 mm 14 m/s 754 mmHg 25%
    15:00 +26°C° 0 mm 14 m/s 754 mmHg 27%
    16:00 +26°C° 0 mm 15 m/s 753 mmHg 29%
    17:00 +24°C° 0 mm 15 m/s 753 mmHg 31%
    18:00 +23°C° 0.4 mm 15 m/s 753 mmHg 38%
    19:00 +20°C° 0.4 mm 14 m/s 753 mmHg 45%
    20:00 +18°C° 0.4 mm 14 m/s 753 mmHg 52%
    21:00 +18°C° 0.1 mm 13 m/s 753 mmHg 57%
    22:00 +18°C° 0.1 mm 13 m/s 752 mmHg 61%
    23:00 +17°C° 0.1 mm 12 m/s 752 mmHg 65%

    24 Novembre, Dimanche

    Heure Température Précipitation Vent Pression Humidité
    00:00 +17°C° 0 mm 11 m/s 752 mmHg 71%
    01:00 +17°C° 0 mm 11 m/s 751 mmHg 76%
    02:00 +18°C° 0 mm 10 m/s 751 mmHg 82%
    03:00 +18°C° 0 mm 8 m/s 751 mmHg 79%
    04:00 +18°C° 0 mm 7 m/s 751 mmHg 76%
    05:00 +19°C° 0 mm 6 m/s 751 mmHg 73%
    06:00 +20°C° 0 mm 5 m/s 751 mmHg 60%
    07:00 +22°C° 0 mm 5 m/s 751 mmHg 46%
    08:00 +23°C° 0 mm 4 m/s 751 mmHg 32%
    09:00 +23°C° 0 mm 5 m/s 751 mmHg 32%
    10:00 +25°C° 0 mm 5 m/s 751 mmHg 31%
    11:00 +25°C° 0 mm 5 m/s 751 mmHg 30%
    12:00 +23°C° 0 mm 7 m/s 751 mmHg 33%
    13:00 +22°C° 0 mm 8 m/s 751 mmHg 35%
    14:00 +21°C° 0 mm 9 m/s 750 mmHg 38%
    15:00 +20°C° 0.2 mm 8 m/s 751 mmHg 44%
    16:00 +18°C° 0.2 mm 7 m/s 751 mmHg 50%
    17:00 +17°C° 0.2 mm 7 m/s 751 mmHg 55%
    18:00 +16°C° 0.3 mm 6 m/s 752 mmHg 62%
    19:00 +15°C° 0.3 mm 6 m/s 752 mmHg 68%
    20:00 +14°C° 0.3 mm 5 m/s 752 mmHg 75%
    21:00 +14°C° 1.3 mm 5 m/s 753 mmHg 72%
    22:00 +14°C° 1.3 mm 5 m/s 754 mmHg 70%
    23:00 +13°C° 1.3 mm 4 m/s 754 mmHg 68%

    25 Novembre, Lundi

    Heure Température Précipitation Vent Pression Humidité
    00:00 +14°C° 0 mm 6 m/s 754 mmHg 59%
    01:00 +13°C° 0 mm 8 m/s 754 mmHg 51%
    02:00 +14°C° 0 mm 10 m/s 754 mmHg 42%
    03:00 +13°C° 0 mm 11 m/s 754 mmHg 40%
    04:00 +13°C° 0 mm 12 m/s 755 mmHg 39%
    05:00 +12°C° 0 mm 13 m/s 755 mmHg 37%
    06:00 +12°C° 0 mm 12 m/s 755 mmHg 36%
    07:00 +13°C° 0 mm 11 m/s 756 mmHg 36%
    08:00 +13°C° 0 mm 11 m/s 756 mmHg 35%
    09:00 +16°C° 0 mm 9 m/s 756 mmHg 34%
    10:00 +17°C° 0 mm 7 m/s 756 mmHg 33%
    11:00 +19°C° 0 mm 6 m/s 756 mmHg 31%
    12:00 +19°C° 0 mm 5 m/s 756 mmHg 33%
    13:00 +19°C° 0 mm 5 m/s 756 mmHg 34%
    14:00 +19°C° 0 mm 4 m/s 755 mmHg 35%
    15:00 +19°C° 0 mm 4 m/s 755 mmHg 35%
    16:00 +19°C° 0 mm 5 m/s 755 mmHg 34%
    17:00 +19°C° 0 mm 5 m/s 755 mmHg 33%
    18:00 +19°C° 0 mm 5 m/s 755 mmHg 33%
    19:00 +17°C° 0 mm 6 m/s 755 mmHg 34%
    20:00 +17°C° 0 mm 7 m/s 755 mmHg 34%
    21:00 +17°C° 0 mm 7 m/s 755 mmHg 35%
    22:00 +16°C° 0 mm 8 m/s 754 mmHg 35%
    23:00 +16°C° 0 mm 8 m/s 754 mmHg 35%
    Voir plus